Orbital Elements at Epoch 2459200.5 (2020-Dec-17.0) TDB
Reference: JPL 32 (heliocentric ecliptic J2000)
Element | Value | Uncertainty (1-sigma) | Units |
e | .07621821869389349 | 3.2207e-08 | |
a | 3.090561074416465 | 1.9383e-08 | au |
q | 2.855004014559756 | 1.0948e-07 | au |
i | 12.93623522405237 | 5.1921e-06 | deg |
node | 174.9753472928911 | 1.3374e-05 | deg |
peri | 271.7546897508649 | 3.934e-05 | deg |
M | 278.6783889044063 | 3.8675e-05 | deg |
tp | 2459648.788807278722 (2022-Mar-10.28880728) | 0.0002148 | TDB |
period | 1984.515166953996 5.43 | 1.8669e-05 5.111e-08 | d yr |
n | .1814045092699185 | 1.7066e-09 | deg/d |
Q | 3.326118134273174 | 2.086e-08 | au |
|
| | Orbit Determination Parameters
Additional Information
|